This is the latest recevied weather packets stored in our database for station/object W2MMD-13. If no packets are shown the sender has not sent any weather packets the latest 10 day(s).
| Time | Temp. | Humidity | Pressure | Rain* | Wind** | Luminosity | Snow |
|---|---|---|---|---|---|---|---|
| 1777601319 | 12.22° C | 73% | - | 0 mm | - | - | - |
| 1777600719 | 12.22° C | 74% | - | 0 mm | - | - | - |
| 1777600119 | 12.78° C | 73% | - | 0 mm | - | - | - |
| 1777599532 | 12.78° C | 72% | - | 0 mm | - | - | - |
| 1777599520 | 12.78° C | 72% | - | 0 mm | - | - | - |
| 1777598920 | 13.33° C | 72% | - | 0 mm | - | - | - |
| 1777598320 | 13.33° C | 71% | - | 0 mm | - | - | - |
| 1777597720 | 13.89° C | 74% | - | 0 mm | - | - | - |
| 1777597120 | 13.89° C | 74% | - | 0 mm | - | - | - |
| 1777596520 | 13.89° C | 73% | - | 0 mm | - | - | - |
| 1777595931 | 13.89° C | 71% | - | 0 mm | - | - | - |
| 1777595920 | 13.89° C | 71% | - | 0 mm | - | - | - |
| 1777595320 | 14.44° C | 70% | - | 0 mm | - | - | - |
| 1777594720 | 14.44° C | 68% | - | 0 mm | - | - | - |
| 1777594120 | 14.44° C | 68% | - | 0 mm | - | - | - |
| 1777593597 | 15° C | 68% | - | 0 mm | - | - | - |
| 1777593520 | 15° C | 68% | - | 0 mm | - | - | - |
| 1777592920 | 15° C | 66% | - | 0 mm | - | - | - |
| 1777592320 | 15.56° C | 64% | - | 0 mm | - | - | - |
| 1777591720 | 15.56° C | 63% | - | 0 mm | - | - | - |
| 1777591131 | 16.11° C | 60% | - | 0 mm | - | - | - |
| 1777591120 | 16.11° C | 59% | - | 0 mm | - | - | - |
| 1777590520 | 17.22° C | 62% | - | 0 mm | - | - | - |
| 1777589931 | 17.22° C | 59% | - | 0 mm | - | - | - |
| 1777589920 | 17.22° C | 59% | - | 0 mm | - | - | - |
* Rain latest hour (hover to see other rain measurements)
** Current wind speed in m/s (hover to see current wind gust speed)